2024-170D (61198 NORAD) Tracking and Keplerian Element Data

This shows tracking and keplerian element data for the satellite.

Feedback or suggestion? Click here.




ElementValue
Catalog61198
Name2024-170D
Epoch Orbit316
Epoch Day286.72163157
Epoch Year2024
RAAN357.8348
Inclination44.8616
Eccentricity0.0006468
Argument of Perigee14.1706
Mean Anonmoly345.9311
Mean Motion14.13093916
Decay Rate1.537E-05
L11 61198U 24170D 24286.72163157 .00001537 00000+0 88671-3 0 9991
L22 61198 44.8616 357.8348 0006468 14.1706 345.9311 14.13093916 3160



Live tracking and technical data element details for 2024-170D (NORAD 61198). 2024-170D can be tracked NOW for your location showing map with azimuth and elevation plus other details from your city location.







IsCatalogInMostPopularTable: catalog: 61198, numindb: 23
Update: records affected: 1



GetName: 61198 2024-170D

Hit Count: updated at: Wed, 04 Dec 2024 08:39:49 GMT